Terminal Aerodrome Forecast
Issued by NWS

Home | Current Version | Previous Version | Text Only | Print | Product List | Glossary On
Versions: 1 2 3 4 5 6 7 8 9 10 11 12 13 14 15 16 17 18 19 20 21 22 23 24 25 26 27 28 29 30 31 32 33 34 35 36 37 38 39 40 41 42 43 44 45 46 47 48 49 50
000
FTUS44 KHGX 260226
TAFLBX
TAFLBX
TAF AMD
KLBX 260226Z 2602/2624 17012KT P6SM VCSH BKN015 BKN022 OVC029
      TEMPO 2604/2606 VRB35KT 3SM TSRA BKN010 BKN025CB
     FM260600 15009KT P6SM SCT025
     FM261500 17014KT P6SM BKN015=

USA.gov is the U.S. government's official web portal to all federal, state and local government web resources and services.